Home   Weather   Tartu   Past weeks

Flag for Estonia Past Weather in Tartu, Estonia — Yesterday and Last 2 Weeks

Now
41 °F

Drizzle. Broken clouds.


Feels Like: 36 °F
Forecast: 31 / 42 °F
Wind: 8 mph from Southeast

Location: Tartu/Ulenurme

Current Time: Apr 25, 2017 at 7:42:28 pm

Latest Report: Apr 25, 2017 at 6:50 pm


Visibility: N/A

Pressure: 29.45 "Hg

Humidity: 100%

Dew Point: 41 °F

Location of TartuLocation

Past Weather in Tartu — Graph

°F

Tartu Temperature Yesterday

Maximum temperature yesterday: 46 °F (at 4:50 pm)
Minimum temperature yesterday: 28 °F (at 3:50 am)
Average temperature yesterday: 37 °F

High & Low Weather Summary for the Past Weeks

 TemperatureHumidityPressure
High63 °F (Apr 10, 5:50 pm)100% (Apr 13, 3:50 am)30.51 "Hg (Apr 13, 3:50 am)
Low16 °F (Apr 16, 2:50 am)28% (Apr 19, 6:50 pm)29.18 "Hg (Apr 22, 5:50 am)
Average35 °F71%29.76 "Hg
* Reported Apr 10 5:50 pm — Apr 25 5:50 pm, Tartu, Weather by CustomWeather, © 2017

Note: Actual official high and low records may vary slightly from our data, if they occured in-between our weather recording intervals... More about our weather records

Advertising

Tartu Weather History for the Previous 24 Hours

Scroll right to see more
 ConditionsComfort  
Time TempWeatherWind HumidityBarometerVisibility
5:50 pm
Tue, Apr 25
39 °FDrizzle. Low clouds.7 mph100%29.50 "HgN/A
4:50 pm37 °FLight rain. Mostly cloudy.6 mph93%29.56 "HgN/A
3:50 pm37 °FLight rain. Mostly cloudy.13 mph93%29.59 "HgN/A
2:50 pm37 °FRain. Low clouds.15 mph93%29.59 "Hg4 mi
1:50 pm39 °FDrizzle. Low clouds.13 mph87%29.62 "HgN/A
12:50 pm39 °FLow clouds.14 mph81%29.62 "HgN/A
11:50 am39 °FOvercast.14 mph81%29.62 "HgN/A
10:50 am37 °FLow clouds.13 mph93%29.65 "HgN/A
9:50 am37 °FLow clouds.15 mph93%29.62 "HgN/A
8:50 am36 °FPartly sunny.15 mph100%29.62 "HgN/A
7:50 am36 °FLight rain. Broken clouds.12 mph93%29.62 "Hg5 mi
6:50 am36 °FLight rain. Partly sunny.12 mph75%29.65 "HgN/A
5:50 am34 °FOvercast.8 mph81%29.65 "HgN/A
4:50 am34 °FPartly cloudy.9 mph81%29.65 "HgN/A
3:50 am34 °FChilly.10 mph81%29.68 "HgN/A
2:50 am32 °FChilly.9 mph87%29.71 "HgN/A
1:50 am34 °FChilly.8 mph75%29.71 "HgN/A
12:50 am32 °FChilly.6 mph80%29.74 "HgN/A
11:50 pm
Mon, Apr 24
34 °FClear.6 mph81%29.74 "Hg10 mi
10:50 pm36 °FClear.5 mph75%29.77 "Hg10 mi
9:50 pm37 °FClear.8 mph75%29.77 "Hg10 mi
8:50 pm39 °FPassing clouds.6 mph70%29.77 "HgN/A
7:50 pm41 °FPassing clouds.5 mph61%29.77 "HgN/A
Weather by CustomWeather, © 2017

See weather overviewHow to use our weather pages